Regional Weather Roundup
Issued by NWS Cleveland, OH

Home | Current Version | Previous Version | Graphics & Text | Print | Product List | Glossary On
Versions: 1 2 3 4 5 6 7 8 9 10 11 12 13 14 15 16 17 18 19 20 21 22 23 24 25 26 27 28 29 30 31 32 33 34 35 36 37 38 39 40 41 42 43 44 45 46 47 48 49 50
000
ASUS41 KCLE 221412
RWRCLE
OHIO REGIONAL WEATHER ROUNDUP
NATIONAL WEATHER SERVICE WILMINGTON, OH
1000 AM EDT FRI SEP 22 2017

NOTE: "FAIR" INDICATES FEW OR NO CLOUDS BELOW 12,000 FEET WITH NO
SIGNIFICANT WEATHER AND/OR OBSTRUCTIONS TO VISIBILITY.

OHZ001>008-015>018-024>027-034-035-043-044-221500-
   NORTHWEST OHIO

CITY           SKY/WX    TMP DP  RH WIND       PRES   REMARKS
DEFIANCE       NOT AVBL
FINDLAY        FAIR      77  67  71 CALM      30.12S
TOLEDO EXPRESS FAIR      78  71  79 CALM      30.12S
TOLEDO EXEC    FAIR      77  69  76 CALM      30.13S
LIMA           FAIR      77  69  76 W3        30.14R
$$

OHZ009>014-019>023-028>033-038-089-221500-
   NORTHEAST OHIO

CITY           SKY/WX    TMP DP  RH WIND       PRES   REMARKS
CLE-HOPKINS    FAIR      76  64  66 SE6       30.15S
CLE-LAKEFRONT  FAIR      74  60  61 SE6       30.13R
CUY CO. ARPT   MOSUNNY   77  63  61 SE6       30.15R
LORAIN-ELYRIA  FAIR      73  62  68 CALM      30.14S
ASHTABULA      FAIR      71  64  78 SE3       30.17R
AKRON-CANTON   PTSUNNY   73  62  68 CALM      30.15S
WOOSTER        FAIR      72  66  81 CALM      30.16S
MANSFIELD      FAIR      79  67  66 CALM      30.16R
YOUNGSTOWN     PTSUNNY   72  64  76 SE3       30.15S
$$

OHZ042-051>053-060>062-070>072-077>081-221500-
  SOUTHWEST OHIO

CITY           SKY/WX    TMP DP  RH WIND       PRES   REMARKS
CINC-COVINGTON FAIR      80  70  71 CALM      30.13S
CINC-LUNKEN    FAIR      74  71  91 CALM      30.13S
HAMILTON       FAIR      76  71  85 CALM      30.14R HAZE
DAYTON         FAIR      78  68  71 CALM      30.15R
WRIGHT-PAT AFB MOSUNNY   75  71  88 CALM      30.14R
DAYTON GENERAL FAIR      76  68  76 CALM      30.14R
WILMINGTON     FAIR      77  69  76 CALM      30.14S
$$

OHZ036-037-039>041-045>050-054>059-063>069-073>076-082>088-221500-
  CENTRAL AND SOUTHEAST OHIO

CITY           SKY/WX    TMP DP  RH WIND       PRES   REMARKS
COLUMBUS       FAIR      76  67  73 SE3       30.14R
OSU AIRPORT    FAIR      76  69  79 CALM      30.14S
BOLTON FIELD   SUNNY     73  70  88 CALM      30.15S
RICKENBACK AFB FAIR      72  68  87 CALM      30.14S
NEWARK         FAIR      72  67  84 CALM      30.14S
MARION         FAIR      77  65  66 CALM      30.15R
LANCASTER      FAIR      72  67  84 CALM      30.15S
ZANESVILLE     FAIR      71  67  87 CALM      30.14S
NEW PHILLY     FAIR      71  66  84 CALM      30.15S
$$



USA.gov is the U.S. government's official web portal to all federal, state and local government web resources and services.